Starlink 35363

operational
NORAD ID: 66179 Int'l Des: 2025-243 Owner: SPXS Country: US Constellation: starlink
LEOCIRCULAR

Starlink 35363について

説明を読み込み中...

リアルタイム位置

3D地球を読み込み中...

次回通過

高度履歴

Altitude vs Time

uPlot chart will show altitude changes over time

軌道要素

1 66179C 25243B 25299.73520833 .00880790 00000+0 14329-2 0 2998
2 66179 53.1580 157.0759 0008922 275.4508 15.8791 16.01669138 12
Epoch: Oct 26, 2025 • Age: 117 hours

現在のステータス

高度 249.6 km
速度 7.76 km/s
衛星直下点 -17.29°S, 30.85°W
打ち上げ日 Oct 26, 2025
運用期間 4 days
タイプ internet

技術仕様

分類 Payload
質量 575.00 kg
乾燥質量 530.00 kg
総質量 575.00 kg
長さ 0.30 m
直径 4.10 m
スパン 29.00 m
形状 Box + pan
製造者 SPXS
バスタイプ Starlink V2MO
フェーズステータス In Orbit
所有者/国 SPXS/US

大規模コンステレーション

Loading constellations...